Kinloss, United Kingdom

3:58 PM GMT on January 20, 2018 (GMT +0000)
Kinloss Air Base

Weather History for EGQK - September, 2012

Change the Weather History Date:

Tuesday, September 25, 2012

  Actual Average Record
Temperature  
Mean Temperature 50 °F -  
Max Temperature 52 °F 56 °F 66 °F (1996)
Min Temperature 48 °F 44 °F 41 °F (2001)
Degree Days  
Heating Degree Days 15    
Moisture  
Dew Point 48 °F    
Average Humidity 89    
Maximum Humidity 94    
Minimum Humidity 71    
Precipitation  
Precipitation 0.35 in 0.07 in - ()
Sea Level Pressure  
Sea Level Pressure 29.34 in    
Wind  
Wind Speed 24 mph ()    
Max Wind Speed 34 mph    
Max Gust Speed 54 mph    
Visibility 6.0 miles    
Events Rain    
Averages and records for this station are not official NWS values.
T = Trace of Precipitation, MM = Missing Value Source: Averaged Metar Reports

Daily Weather History Graph

Daily Weather History Graph

Search for Another Location

Airport or City:

Trip Planner

Search our weather history database for the weather conditions in past years. The results will help you decide how hot, cold, wet, or windy it might be!

Date:

Astronomy

Sep. 25, 2012 Rise Set
Actual Time 7:06 AM BST 7:04 PM BST
Civil Twilight 6:27 AM BST 7:42 PM BST
Nautical Twilight 5:41 AM BST 8:28 PM BST
Astronomical Twilight 4:52 AM BST 9:17 PM BST
Moon 5:05 PM BST (9/25) 1:17 AM BST (9/25)
Length of Visible Light 13h 15m
Length of Day
11h 58m
Waxing Gibbous, 78% of the Moon is Illuminated
Sep 25
Waxing Gibbous
Sep 30
Full
Oct 8
Last Quarter
Oct 15
New
Oct 22
First Quarter

Hourly Weather History & Observations

Time (BST) Temp. Dew Point Humidity Pressure Visibility Wind Dir Wind Speed Gust Speed Precip Events Conditions
12:50 AM 49 °F 46 °F 87% 29.42 in 7 mi ENE 25.3 mph - - Rain Light Rain
12:50 AM 50.0 °F 46.4 °F 87% 29.42 in 6.2 mi ENE 25.3 mph 39.1 mph N/A Rain Light Rain
1:50 AM 50.0 °F 46.4 °F 87% 29.39 in 6.2 mi NE 23.0 mph - N/A Rain Light Rain
2:50 AM 50.0 °F 46.4 °F 87% 29.36 in 6.2 mi ENE 20.7 mph - N/A Rain Light Rain
3:50 AM 49 °F 46 °F 83% 29.37 in 6 mi ENE 24.2 mph - - Rain Rain
3:50 AM 50.0 °F 46.4 °F 87% 29.36 in 6.2 mi ENE 24.2 mph 36.8 mph N/A Rain Rain
4:50 AM 50.0 °F 46.4 °F 87% 29.33 in 6.2 mi NE 27.6 mph 39.1 mph N/A Rain Light Rain
5:50 AM 50.0 °F 44.6 °F 82% 29.30 in 6.2 mi NE 26.5 mph 40.3 mph N/A Rain Light Rain
6:50 AM 51 °F 44 °F 71% 29.31 in 12 mi NE 28.8 mph - - Rain Light Rain
6:50 AM 51.8 °F 44.6 °F 76% 29.30 in 6.2 mi NE 28.8 mph - N/A Rain Light Rain
7:50 AM 50.0 °F 46.4 °F 87% 29.30 in 6.2 mi NE 26.5 mph 38.0 mph N/A Rain Light Rain
8:50 AM 50.0 °F 44.6 °F 82% 29.30 in 5.6 mi NE 31.1 mph 44.9 mph N/A Rain Light Rain
9:50 AM 49 °F 46 °F 83% 29.29 in 3 mi NE 34.5 mph - - Rain Rain
9:50 AM 48.2 °F 46.4 °F 93% 29.27 in - NE 34.5 mph 54.1 mph N/A Rain Rain
10:50 AM 48.2 °F 46.4 °F 93% 29.27 in 3.7 mi NE 33.4 mph 44.9 mph N/A Rain Rain
11:50 AM 48.2 °F 46.4 °F 93% 29.27 in - NE 32.2 mph 43.7 mph N/A Rain Rain
12:50 PM 49 °F 47 °F 92% 29.29 in 3 mi NE 31.1 mph - - Rain Rain
12:50 PM 50.0 °F 48.2 °F 94% 29.27 in - NE 31.1 mph 49.5 mph N/A Rain Rain
1:50 PM 50.0 °F 48.2 °F 94% 29.27 in 3.7 mi NE 28.8 mph 40.3 mph N/A Rain Light Rain
2:50 PM 51.8 °F 50.0 °F 94% 29.30 in 6.2 mi NE 25.3 mph - N/A   Light Drizzle
3:50 PM 52 °F 50 °F 90% 29.31 in 6 mi NE 27.6 mph - - Rain Light Drizzle
3:50 PM 51.8 °F 50.0 °F 94% 29.30 in 5.6 mi NE 27.6 mph - N/A   Light Drizzle
4:50 PM 51.8 °F 50.0 °F 94% 29.33 in 6.2 mi NE 25.3 mph - N/A   Mostly Cloudy
5:50 PM 51.8 °F 50.0 °F 94% 29.33 in 6.2 mi NE 24.2 mph - N/A   Mostly Cloudy
6:50 PM 52 °F 50 °F 90% 29.36 in 4 mi NE 24.2 mph - - Rain Light Rain
6:50 PM 51.8 °F 50.0 °F 94% 29.36 in 4.3 mi NE 24.2 mph 35.7 mph N/A Rain Light Rain
8:50 PM 51.8 °F 50.0 °F 94% 29.39 in 6.2 mi NE 24.2 mph - N/A   Mostly Cloudy
9:50 PM 51 °F 49 °F 92% 29.41 in 11 mi NE 20.7 mph - - Rain Light Rain
9:50 PM 51.8 °F 50.0 °F 94% 29.39 in 6.2 mi NE 20.7 mph - N/A Rain Light Rain
10:50 PM 51.8 °F 50.0 °F 94% 29.42 in 6.2 mi NE 18.4 mph - N/A Rain Light Rain
11:50 PM 51.8 °F 50.0 °F 94% 29.42 in 5.6 mi NE 17.3 mph - N/A Rain Light Rain